Temp
79 88 88 78 62 63 58 59 67 66 67 71 74 69 68 69 65 54 74 79 80 77 76 76 74 75 75 75 75 76 76 77 77 77 77 77 77 77 76 76 76 76 77 76 75 75 74 74 73
80 88 80 72 60 57 57 63 65 67 72 74 70 71 69 65 73 70 70 79 81 79 77 75 72 74 75 75 75 76 76 76 77 77 77 77 77 77 77 76 76 76 77 76 75 74 74 73 73
88 91 70 65 62 57 57 67 66 69 71 71 67 71 71 68 74 72 76 79 80 79 79 74 72 74 75 75 75 75 75 76 76 76 76 77 76 76 76 77 76 76 75 76 75 74 73 72 72
84 80 75 61 61 64 66 68 71 68 68 71 71 67 71 76 74 76 78 79 77 78 76 71 73 74 74 74 75 75 75 75 75 75 76 76 76 75 76 76 75 75 75 76 75 74 72 72 72
83 75 62 60 62 67 70 71 72 69 69 70 69 66 66 73 77 77 76 78 75 76 73 73 72 73 74 74 74 74 75 75 75 75 75 75 75 75 75 75 75 75 75 75 74 73 72 71 71
70 72 58 57 64 67 70 71 70 71 71 70 66 66 64 71 73 73 76 76 77 75 74 73 69 70 72 73 73 74 74 74 74 74 74 74 74 75 74 74 74 74 74 74 73 72 71 71 70
66 62 58 61 64 65 69 71 69 69 71 69 70 64 65 69 73 74 75 76 76 75 75 73 72 71 68 70 71 72 72 73 73 73 73 73 72 73 72 72 74 73 74 72 72 71 70 70 69
68 65 59 61 61 63 69 70 73 71 69 75 72 65 62 68 73 74 73 74 74 73 73 73 72 71 71 68 67 68 70 70 70 69 68 67 70 71 69 68 72 72 72 72 71 70 70 69 68
73 58 56 61 63 66 70 67 70 73 69 69 72 71 71 72 72 70 68 69 70 71 72 73 72 73 72 70 68 66 67 67 67 66 65 64 67 67 70 70 69 71 70 70 70 70 69 67 66
63 56 60 70 72 70 69 68 69 66 68 67 70 70 73 71 69 67 66 66 67 67 69 71 72 72 72 74 69 68 69 67 67 67 67 67 67 67 69 64 66 68 67 68 69 69 67 64 62
64 57 67 71 74 73 70 68 70 65 63 69 68 69 70 69 68 67 68 69 69 68 68 71 71 72 72 72 70 67 66 65 66 66 66 66 68 64 63 61 62 62 61 62 63 62 62 63 64
59 66 69 69 71 69 66 70 67 67 67 75 73 73 71 69 69 69 69 70 70 70 70 71 71 71 71 73 71 68 68 67 65 66 66 65 64 63 63 61 61 61 61 61 61 60 62 64 66
61 63 67 69 68 65 68 64 64 65 71 74 75 75 72 71 71 72 73 73 72 71 72 72 70 71 71 72 71 70 67 67 66 66 67 66 64 62 63 63 62 61 61 61 61 62 63 63 64
64 64 63 67 66 66 63 62 63 66 70 70 72 71 72 73 73 72 72 72 73 73 72 73 72 72 72 71 71 70 68 67 67 66 66 67 65 63 64 63 63 62 62 62 62 62 62 61 62
63 56 59 61 63 62 64 56 58 67 69 68 70 70 71 72 74 73 74 73 73 74 73 73 72 73 72 71 71 70 67 68 67 66 66 66 66 64 64 63 62 62 63 63 62 62 62 61 62
54 53 45 59 62 62 59 47 62 68 67 67 68 69 70 72 73 74 76 75 75 74 74 73 75 73 72 72 71 71 70 68 67 66 66 67 67 66 64 63 62 63 62 62 60 60 59 59 59
51 42 46 52 63 61 56 49 62 67 66 64 65 67 68 70 73 74 74 74 75 76 75 73 73 71 71 71 72 70 69 68 67 67 67 67 67 67 65 64 63 63 62 60 61 59 59 58 58
44 46 48 48 58 59 54 54 60 65 65 63 63 65 66 68 70 74 75 75 75 75 74 74 74 72 71 71 71 70 69 68 68 67 67 67 68 68 67 65 63 64 61 59 59 59 59 59 59
52 50 48 54 61 52 52 54 58 62 62 62 63 65 66 69 73 74 74 74 73 72 72 74 73 72 70 69 67 67 66 66 66 66 68 69 69 67 66 65 65 65 63 62 60 59 58 57 59
50 47 47 55 57 52 51 51 57 60 61 63 63 64 66 67 69 72 72 72 71 71 71 73 74 73 71 70 69 68 68 66 66 66 66 67 68 67 67 66 66 66 64 62 61 60 58 57 59
49 47 47 46 53 53 49 46 51 59 62 64 65 66 68 68 68 69 70 70 70 69 71 73 74 73 72 71 70 67 66 63 63 63 64 65 67 68 67 66 66 66 66 64 62 62 60 58 58
43 53 52 49 45 35 48 33 47 54 57 59 62 62 64 66 70 72 71 69 70 70 71 72 73 73 72 71 69 67 65 63 64 64 65 64 66 68 68 67 67 66 66 65 64 64 62 59 58
46 53 51 49 44 43 41 37 42 51 51 56 59 62 64 66 67 67 68 69 70 70 68 69 73 72 72 70 70 67 66 67 68 67 65 64 66 67 68 67 67 66 66 66 65 64 63 62 61
54 50 48 45 40 30 38 39 38 47 53 54 59 61 64 64 65 64 67 68 67 67 67 66 68 72 71 70 69 68 67 67 66 66 65 65 65 66 67 68 67 66 66 65 65 64 64 63 62
50 42 26 28 28 27 44 37 43 52 57 57 59 61 61 62 62 63 62 62 63 62 63 65 66 68 71 70 69 69 69 68 67 67 66 65 64 64 65 67 66 66 66 66 66 64 64 63 62
45 42 31 24 26 29 42 32 42 56 60 62 61 62 62 60 60 60 61 61 61 61 61 62 63 65 68 70 69 70 70 70 69 69 68 67 66 66 67 66 67 66 66 66 66 65 64 64 63
43 37 46 35 31 29 35 42 51 56 56 57 58 59 61 59 60 59 58 60 60 59 59 59 60 62 64 66 70 69 70 69 69 69 70 69 68 67 67 67 65 66 66 65 65 64 63 63 63
47 48 35 35 24 21 31 33 40 49 54 57 57 57 59 58 58 60 60 60 60 60 58 58 59 59 61 62 65 68 69 69 69 70 68 68 69 68 67 67 66 66 65 65 64 64 64 63 64
43 40 40 41 34 27 25 33 51 54 55 53 55 56 56 53 57 58 59 59 59 58 58 57 56 56 57 59 61 62 65 67 68 68 68 68 68 69 68 68 67 65 64 64 63 64 65 63 63
48 44 42 32 28 32 31 34 54 53 55 55 55 58 54 55 58 58 58 58 58 58 58 58 57 55 55 56 58 61 62 62 65 67 68 68 67 67 68 68 67 65 64 63 62 62 63 62 61
MSLP
1012.40 1011.38 1010.79 1010.72 1011.35 1010.88 1011.55 1012.33 1012.01 1012.32 1012.37 1012.64 1012.72 1012.94 1013.22 1013.75 1014.59 1016.35 1016.40 1016.36 1016.72 1017.65 1018.58 1019.01 1019.36 1019.66 1020.05 1020.28 1020.45 1020.61 1020.70 1020.83 1020.95 1021.19 1021.32 1021.50 1021.52 1021.54 1021.80 1021.97 1022.12 1022.19 1022.18 1022.40 1022.65 1022.81 1022.90 1022.93 1022.97
1012.40 1011.36 1010.74 1010.58 1010.79 1010.82 1011.74 1012.02 1012.35 1012.69 1012.89 1012.98 1013.04 1012.97 1013.16 1014.46 1015.10 1016.21 1016.52 1016.60 1016.89 1017.70 1018.49 1019.03 1019.43 1019.86 1020.15 1020.45 1020.61 1020.78 1020.94 1021.03 1021.20 1021.41 1021.58 1021.70 1021.82 1021.90 1022.07 1022.22 1022.41 1022.57 1022.58 1022.75 1022.91 1023.15 1023.25 1023.36 1023.39
1011.76 1011.04 1011.40 1010.80 1010.66 1011.23 1011.69 1012.00 1012.57 1013.05 1012.98 1012.99 1013.14 1013.34 1013.60 1014.88 1015.35 1016.13 1016.27 1016.65 1016.88 1017.65 1018.21 1019.15 1019.59 1019.86 1020.30 1020.56 1020.78 1020.99 1021.17 1021.34 1021.47 1021.76 1021.89 1022.01 1022.10 1022.17 1022.40 1022.44 1022.67 1022.89 1023.03 1023.13 1023.30 1023.47 1023.60 1023.70 1023.70
1011.76 1011.01 1011.09 1011.17 1011.10 1011.67 1011.72 1012.02 1012.42 1013.08 1013.24 1013.31 1013.25 1013.90 1014.71 1015.40 1015.43 1015.80 1016.48 1016.57 1017.15 1017.52 1018.35 1019.13 1019.70 1019.94 1020.30 1020.74 1021.01 1021.14 1021.26 1021.42 1021.59 1021.87 1021.99 1022.22 1022.42 1022.53 1022.60 1022.69 1022.85 1023.22 1023.32 1023.46 1023.64 1023.83 1023.98 1024.03 1024.01
1011.89 1011.64 1011.54 1011.39 1011.48 1011.88 1011.99 1012.17 1012.18 1012.62 1013.02 1013.32 1013.50 1013.99 1015.09 1015.82 1015.96 1016.35 1016.82 1016.88 1017.19 1017.55 1018.53 1019.33 1019.68 1020.05 1020.37 1020.67 1021.02 1021.35 1021.49 1021.57 1021.73 1021.96 1022.25 1022.51 1022.65 1022.73 1022.83 1022.91 1023.10 1023.35 1023.62 1023.78 1023.98 1024.16 1024.28 1024.36 1024.37
1012.86 1012.16 1012.29 1011.85 1011.74 1012.10 1012.44 1012.28 1012.20 1012.40 1012.99 1013.42 1013.64 1013.96 1015.57 1016.12 1016.35 1016.82 1017.08 1017.25 1017.44 1017.75 1018.31 1019.19 1019.93 1020.25 1020.47 1020.70 1020.97 1021.28 1021.52 1021.70 1021.87 1022.02 1022.44 1022.67 1022.88 1022.95 1023.05 1023.17 1023.36 1023.49 1023.87 1024.09 1024.27 1024.44 1024.54 1024.64 1024.68
1013.62 1013.45 1012.97 1012.53 1012.15 1012.14 1012.32 1012.62 1012.45 1012.52 1012.76 1013.24 1013.61 1014.02 1015.58 1016.16 1016.32 1016.69 1016.97 1017.34 1017.57 1018.01 1018.39 1019.02 1019.69 1020.21 1020.58 1020.79 1021.13 1021.35 1021.53 1021.83 1022.07 1022.31 1022.51 1022.89 1023.06 1023.16 1023.34 1023.49 1023.65 1023.81 1023.96 1024.38 1024.57 1024.67 1024.77 1024.83 1024.89
1014.35 1013.96 1013.49 1012.82 1012.44 1012.21 1012.43 1012.58 1012.84 1013.06 1013.20 1013.42 1013.59 1014.03 1015.28 1016.03 1016.54 1016.75 1017.06 1017.22 1017.88 1018.10 1018.51 1019.04 1019.53 1019.96 1020.52 1020.85 1021.05 1021.25 1021.50 1021.76 1022.05 1022.32 1022.69 1023.03 1023.27 1023.42 1023.52 1023.62 1023.80 1024.03 1024.20 1024.48 1024.78 1024.95 1025.03 1025.19 1025.20
1014.94 1014.62 1013.67 1013.08 1012.53 1012.28 1012.72 1012.90 1013.24 1013.42 1013.52 1013.50 1013.79 1014.22 1015.18 1015.95 1016.54 1017.06 1017.39 1017.66 1017.80 1018.38 1018.53 1018.78 1019.36 1019.80 1020.15 1020.83 1021.07 1021.25 1021.44 1021.70 1022.02 1022.10 1022.54 1023.09 1023.27 1023.62 1023.74 1023.77 1023.97 1024.25 1024.57 1024.72 1024.87 1025.03 1025.20 1025.34 1025.44
1015.14 1014.66 1013.64 1012.95 1012.21 1012.19 1012.67 1012.95 1013.16 1013.59 1013.62 1013.72 1014.09 1014.90 1015.48 1016.17 1016.58 1016.92 1017.20 1017.61 1017.80 1018.14 1018.44 1018.60 1018.89 1019.39 1019.84 1020.16 1020.86 1021.18 1021.26 1021.63 1021.89 1022.13 1022.41 1022.79 1022.98 1023.22 1023.52 1023.75 1023.97 1024.26 1024.63 1024.87 1024.91 1025.03 1025.21 1025.40 1025.39
1014.93 1014.73 1013.84 1013.19 1012.78 1012.52 1012.79 1013.12 1013.42 1013.58 1013.70 1013.41 1013.76 1014.38 1015.13 1016.03 1016.56 1016.72 1016.87 1016.91 1017.21 1017.70 1018.13 1018.20 1018.48 1018.82 1019.43 1020.06 1020.57 1021.03 1021.21 1021.28 1021.51 1021.81 1022.29 1022.43 1022.62 1023.08 1023.43 1023.90 1024.06 1024.33 1024.60 1024.85 1025.07 1025.21 1025.21 1025.11 1025.15
1015.05 1014.81 1014.19 1013.84 1013.52 1013.69 1013.77 1013.67 1013.59 1013.62 1013.62 1013.37 1013.50 1013.91 1014.66 1015.21 1015.80 1016.18 1016.31 1016.36 1016.62 1016.93 1017.32 1017.69 1017.83 1018.31 1018.72 1019.31 1020.06 1020.39 1020.76 1021.13 1021.32 1021.54 1021.93 1022.29 1022.36 1022.67 1023.28 1023.74 1024.02 1024.28 1024.53 1024.64 1024.79 1024.95 1024.87 1024.72 1024.56
1014.92 1015.12 1014.69 1014.26 1014.15 1014.49 1014.61 1014.55 1014.37 1013.79 1013.64 1013.51 1013.47 1013.72 1014.03 1014.82 1014.92 1015.23 1015.43 1015.89 1016.21 1016.40 1016.49 1016.92 1017.32 1017.91 1018.14 1018.55 1019.28 1019.86 1019.96 1020.52 1020.79 1021.10 1021.45 1021.76 1022.05 1022.45 1022.73 1023.22 1023.55 1023.79 1024.00 1024.29 1024.44 1024.55 1024.57 1024.64 1024.74
1015.17 1015.15 1015.19 1014.63 1014.63 1014.86 1015.21 1015.06 1014.97 1013.79 1013.71 1013.57 1013.48 1013.50 1013.68 1013.83 1014.04 1014.35 1014.64 1015.01 1015.29 1015.76 1016.06 1016.25 1016.73 1016.92 1017.60 1017.92 1018.50 1018.92 1019.41 1019.67 1020.31 1020.69 1020.96 1021.25 1021.74 1022.04 1022.28 1022.59 1022.98 1023.29 1023.45 1023.70 1023.95 1024.23 1024.37 1024.55 1024.56
1015.62 1015.99 1015.72 1015.17 1015.07 1015.15 1015.51 1015.12 1014.43 1013.69 1013.76 1013.45 1013.32 1013.11 1013.07 1013.17 1013.30 1013.53 1013.67 1014.00 1014.37 1014.98 1015.64 1016.07 1016.48 1016.36 1016.83 1017.34 1017.67 1018.16 1018.69 1019.07 1019.47 1019.93 1020.24 1020.73 1021.13 1021.66 1021.86 1022.15 1022.58 1022.87 1023.02 1023.23 1023.52 1023.71 1023.88 1024.15 1024.26
1016.33 1016.65 1016.30 1015.19 1015.08 1014.99 1015.58 1014.34 1013.80 1013.09 1013.07 1013.05 1012.88 1012.71 1012.44 1012.38 1012.48 1012.63 1012.60 1012.90 1013.47 1013.99 1014.63 1015.33 1016.05 1016.34 1016.40 1016.57 1017.00 1017.39 1017.87 1018.31 1018.80 1019.29 1019.78 1019.99 1020.39 1020.91 1021.33 1021.66 1021.88 1022.21 1022.56 1022.82 1023.20 1023.43 1023.80 1024.00 1024.13
1016.66 1016.43 1016.07 1015.43 1014.56 1014.83 1015.12 1014.27 1013.59 1013.18 1012.81 1012.68 1012.40 1012.31 1012.04 1011.89 1011.71 1011.74 1011.74 1012.12 1012.59 1012.90 1013.58 1014.41 1015.12 1015.75 1016.19 1016.31 1016.44 1016.88 1017.35 1017.62 1018.10 1018.56 1018.88 1019.51 1019.83 1020.11 1020.60 1020.97 1021.46 1021.69 1022.19 1022.44 1022.79 1023.18 1023.41 1023.72 1023.84
1016.26 1016.31 1016.03 1015.32 1014.59 1014.46 1014.61 1014.21 1014.05 1013.41 1012.76 1012.72 1012.53 1012.28 1012.01 1011.68 1011.43 1011.29 1011.24 1011.46 1011.94 1012.09 1012.63 1013.45 1014.38 1015.22 1015.84 1016.44 1016.42 1016.42 1016.78 1017.07 1017.41 1017.84 1018.06 1018.35 1018.99 1019.43 1019.82 1020.24 1020.80 1021.08 1021.67 1022.17 1022.39 1022.74 1022.88 1023.13 1023.34
1016.29 1016.13 1015.61 1014.88 1014.48 1014.64 1014.70 1014.24 1013.70 1013.22 1012.84 1012.38 1012.23 1011.90 1011.66 1011.37 1011.00 1010.87 1010.55 1010.58 1011.05 1011.59 1011.99 1012.47 1013.43 1014.29 1015.26 1016.01 1016.31 1016.21 1016.00 1016.29 1016.81 1017.01 1017.31 1017.62 1017.97 1018.65 1019.16 1019.50 1019.80 1020.16 1020.67 1021.35 1021.77 1022.22 1022.43 1022.74 1022.90
1016.39 1016.20 1015.87 1015.22 1014.70 1015.06 1015.17 1014.20 1013.66 1013.10 1012.36 1012.08 1011.78 1011.53 1011.16 1010.82 1010.40 1010.17 1010.07 1010.01 1010.18 1010.56 1011.07 1011.65 1011.98 1012.86 1014.17 1014.88 1015.19 1015.72 1015.91 1015.92 1016.03 1016.50 1016.72 1017.06 1017.32 1017.72 1018.17 1018.69 1019.05 1019.31 1019.80 1020.40 1021.00 1021.44 1022.02 1022.15 1022.35
1016.11 1016.07 1016.34 1016.12 1015.74 1015.58 1015.58 1013.67 1012.67 1011.34 1011.10 1011.01 1010.92 1010.63 1010.45 1010.15 1010.00 1009.92 1009.74 1009.70 1009.68 1009.88 1010.15 1010.57 1011.25 1011.82 1012.31 1013.47 1014.59 1015.28 1015.83 1016.17 1016.19 1015.97 1016.09 1016.11 1016.42 1016.69 1017.12 1017.66 1018.20 1018.49 1018.94 1019.28 1019.84 1020.39 1020.88 1021.43 1021.64
1015.83 1016.32 1016.76 1016.82 1016.98 1016.85 1016.46 1014.34 1012.46 1011.74 1010.72 1010.22 1009.79 1009.59 1009.36 1008.95 1009.16 1009.09 1009.08 1009.15 1009.15 1009.14 1009.41 1009.76 1010.22 1010.78 1011.65 1012.37 1013.00 1013.58 1013.70 1014.07 1014.00 1014.53 1015.05 1015.31 1015.52 1015.60 1016.01 1016.46 1016.97 1017.45 1017.68 1018.35 1018.73 1019.22 1019.73 1020.38 1020.77
1016.02 1016.38 1016.91 1017.21 1017.53 1017.70 1017.32 1016.94 1012.67 1011.32 1010.52 1009.65 1008.81 1008.71 1008.17 1008.04 1008.32 1008.37 1008.46 1008.43 1008.30 1008.30 1008.57 1008.90 1009.22 1009.80 1010.55 1011.36 1011.83 1012.35 1012.73 1012.74 1013.03 1013.51 1013.84 1014.21 1014.39 1014.49 1014.73 1015.21 1015.76 1016.41 1016.74 1017.14 1017.73 1018.13 1018.66 1019.03 1019.45
1016.22 1016.78 1017.48 1018.10 1018.66 1018.18 1017.19 1016.82 1012.34 1011.23 1009.61 1009.07 1008.55 1008.50 1008.21 1008.00 1007.79 1008.22 1008.22 1008.33 1008.51 1008.37 1008.38 1008.57 1008.75 1008.95 1009.46 1010.13 1010.76 1011.01 1011.33 1011.88 1011.96 1012.06 1012.43 1012.71 1013.06 1013.29 1013.56 1013.67 1014.14 1014.81 1015.45 1015.72 1016.25 1016.91 1017.40 1017.75 1018.24
1016.29 1016.99 1017.99 1019.12 1019.37 1017.45 1016.15 1016.13 1011.48 1010.09 1009.57 1008.98 1008.67 1008.37 1008.09 1008.04 1008.15 1008.37 1008.77 1009.17 1009.23 1009.14 1008.87 1008.66 1008.47 1008.50 1008.59 1008.88 1009.35 1009.87 1010.24 1010.48 1010.89 1011.14 1011.14 1011.68 1012.02 1012.22 1012.23 1012.54 1013.04 1013.48 1013.88 1014.50 1014.97 1015.71 1016.21 1016.47 1016.91
1015.83 1016.70 1017.14 1017.74 1018.06 1017.10 1015.87 1014.29 1010.67 1009.47 1008.81 1008.35 1007.89 1008.02 1008.22 1008.42 1008.46 1008.68 1009.29 1009.59 1009.76 1009.66 1009.38 1009.00 1008.69 1008.28 1008.10 1008.22 1008.45 1008.78 1009.21 1009.47 1009.57 1010.09 1010.11 1010.40 1010.57 1010.74 1011.28 1011.63 1012.04 1012.36 1012.96 1013.43 1013.96 1014.38 1014.93 1015.33 1015.63
1015.43 1016.06 1016.27 1017.41 1017.87 1017.66 1015.56 1012.73 1010.87 1009.19 1008.62 1008.10 1008.06 1008.05 1008.36 1008.87 1008.93 1009.09 1009.36 1009.64 1009.70 1009.74 1009.49 1009.16 1008.79 1008.30 1007.97 1007.77 1007.74 1007.81 1008.01 1008.45 1008.60 1008.95 1009.29 1009.04 1009.43 1009.80 1010.09 1010.54 1010.96 1011.34 1011.77 1012.31 1012.83 1013.21 1013.55 1014.01 1014.45
1014.44 1015.62 1016.87 1017.79 1017.78 1017.21 1014.71 1012.78 1010.38 1008.97 1008.29 1008.21 1008.05 1008.16 1008.60 1009.11 1009.26 1009.47 1009.57 1009.55 1009.54 1009.38 1009.07 1008.93 1008.74 1008.44 1007.94 1007.60 1007.31 1006.80 1006.74 1007.25 1007.62 1008.10 1008.47 1008.45 1008.37 1008.90 1009.00 1009.19 1009.54 1009.96 1010.58 1011.29 1011.85 1012.13 1012.55 1012.91 1013.14
1014.48 1014.97 1015.85 1016.15 1016.74 1015.92 1014.62 1011.70 1009.14 1008.28 1008.38 1008.63 1008.32 1008.61 1008.87 1009.46 1009.55 1009.62 1009.70 1009.52 1009.53 1009.13 1008.90 1008.61 1008.46 1008.27 1007.91 1007.62 1007.22 1006.83 1006.10 1006.02 1006.53 1006.98 1007.41 1007.96 1008.09 1008.20 1008.70 1008.49 1008.37 1008.95 1009.32 1009.96 1010.62 1010.93 1011.33 1011.66 1011.94
1014.07 1014.00 1015.09 1015.05 1015.66 1015.63 1014.68 1011.35 1008.78 1008.45 1008.74 1008.54 1008.66 1008.90 1009.32 1009.55 1009.53 1009.42 1009.37 1009.20 1009.26 1009.28 1009.04 1008.74 1008.25 1008.03 1007.88 1007.59 1007.34 1006.84 1006.20 1005.62 1005.62 1005.78 1006.16 1006.98 1007.43 1007.12 1007.65 1008.24 1007.88 1007.90 1008.38 1008.72 1009.38 1009.79 1010.21 1010.66 1010.91
Wind_Speed
15 12 7 3 2 2 5 4 3 4 6 5 6 4 4 11 6 4 5 7 13 14 13 11 13 15 14 13 11 12 12 13 14 15 14 12 9 14 17 16 15 14 16 17 17 16 17 17 16
9 14 3 4 2 2 5 2 10 8 6 7 1 3 2 6 8 6 7 6 10 14 11 11 12 13 14 12 11 11 11 13 13 14 14 13 11 12 14 16 15 12 14 15 16 16 15 15 14
15 9 2 3 2 7 5 6 9 6 4 1 1 3 6 4 8 9 10 8 10 11 11 12 12 14 12 11 11 11 11 13 13 14 13 13 8 12 12 10 15 12 13 14 14 15 14 14 12
6 3 3 2 7 6 7 6 10 6 2 1 4 6 6 8 3 7 11 10 9 8 14 14 12 14 12 10 9 10 11 11 13 14 12 12 10 10 11 9 14 12 11 13 13 13 12 12 10
5 4 4 3 7 6 6 4 6 5 5 5 1 4 6 5 9 8 8 8 9 9 13 11 12 12 12 10 9 8 11 10 13 15 12 11 10 9 6 10 11 13 11 11 11 11 11 10 9
4 1 4 3 7 6 6 3 2 6 3 5 2 2 4 5 8 7 6 7 7 8 13 12 10 10 11 10 9 9 11 11 12 14 12 10 10 9 5 10 10 11 12 9 10 10 10 9 8
5 4 7 7 3 6 6 2 4 3 8 4 2 3 5 6 9 8 9 6 8 6 10 11 10 10 9 10 8 7 11 10 11 13 12 9 8 9 6 7 8 7 9 10 9 9 8 8 7
4 2 7 8 5 5 5 4 6 5 2 5 3 1 6 8 7 8 6 8 7 7 7 9 10 9 7 6 8 8 11 11 10 12 11 8 9 9 5 5 8 7 7 11 8 7 8 7 6
4 3 6 10 7 4 7 4 4 4 4 1 4 4 7 10 9 7 5 6 7 6 6 10 9 10 10 7 6 7 9 10 10 11 14 7 5 5 7 7 6 8 5 5 8 7 7 7 5
4 5 10 11 7 3 9 4 5 4 5 4 5 8 7 9 8 9 9 8 7 9 7 6 11 8 7 8 8 6 7 5 5 6 7 5 5 7 7 6 6 9 8 5 4 7 6 7 4
5 7 12 11 9 4 6 5 4 4 7 7 5 12 11 9 8 9 10 10 12 9 6 8 8 11 10 6 6 3 3 4 4 7 6 6 4 5 4 3 3 4 6 3 4 3 3 6 5
11 12 11 13 7 5 4 7 7 7 7 9 6 5 11 12 12 10 11 11 11 13 14 10 9 10 12 7 6 5 5 4 4 6 8 5 3 5 4 4 5 4 4 5 5 4 5 5 2
11 8 13 10 6 3 7 8 9 11 8 9 8 8 7 10 10 10 11 9 9 13 14 14 10 9 11 12 8 7 5 5 5 5 7 5 4 5 5 5 5 5 5 5 5 5 4 3 4
2 5 14 12 5 4 7 10 8 13 9 10 12 12 10 9 8 9 9 10 12 12 14 14 15 13 11 13 11 8 5 7 5 5 6 7 5 5 5 5 5 5 5 5 5 5 5 5 4
2 6 8 9 7 7 6 11 12 19 12 13 13 10 10 10 9 10 10 11 10 9 10 13 15 14 14 14 11 8 5 6 7 5 8 8 7 6 6 5 5 5 5 7 5 5 4 4 4
2 6 7 5 13 8 7 9 9 15 13 17 14 14 9 10 12 11 10 8 10 11 13 12 13 15 14 14 12 8 8 7 7 5 6 10 10 7 6 5 5 5 5 5 4 4 4 4 4
7 5 12 10 8 10 11 4 8 7 8 8 8 8 7 8 8 7 7 8 9 12 12 13 13 15 15 13 11 11 10 8 7 7 7 9 12 11 7 5 5 6 5 5 4 5 5 4 4
7 9 9 11 9 13 12 13 11 12 15 10 9 10 8 9 9 8 9 8 9 9 10 13 11 13 14 10 10 9 9 8 8 9 8 12 11 13 10 8 7 8 5 5 5 5 5 4 5
11 12 12 9 14 1 7 11 11 10 11 13 11 12 11 13 12 10 9 10 10 9 10 13 14 14 11 10 10 11 12 10 10 10 13 12 13 13 13 8 10 9 9 9 7 5 6 5 4
13 12 13 12 5 1 8 19 17 18 18 19 15 13 12 10 10 11 9 9 11 11 11 12 16 17 14 12 12 11 10 9 10 9 11 12 12 14 13 13 11 12 9 10 10 9 5 4 6
16 14 9 10 12 6 9 19 17 19 21 20 17 17 18 19 14 12 10 9 8 10 12 14 15 16 17 18 11 7 5 5 8 11 11 14 14 15 16 15 12 11 11 11 12 11 12 9 5
12 8 12 14 5 5 4 11 14 13 13 10 11 10 12 14 18 18 12 10 10 9 11 13 16 17 16 19 16 17 15 14 14 13 11 13 18 17 17 16 16 14 11 13 12 11 11 7 10
8 6 8 7 5 9 11 9 7 5 10 11 8 10 11 11 9 8 9 8 7 8 8 10 15 17 17 17 19 15 17 14 10 10 15 16 16 20 18 18 17 16 12 14 14 13 13 11 9
5 4 3 3 2 7 7 9 7 8 8 2 7 7 4 3 4 3 6 7 6 6 5 7 9 15 16 17 21 21 20 18 13 13 12 12 12 14 19 19 18 17 16 16 15 14 16 14 13
10 7 2 4 5 8 6 9 19 8 12 8 9 7 6 7 5 6 9 8 9 10 9 7 8 10 15 18 20 22 21 20 19 15 13 13 12 12 18 20 18 16 18 17 15 16 15 16 14
13 9 5 7 5 3 9 11 10 6 11 7 4 4 6 7 7 8 6 3 6 8 9 9 8 9 10 15 18 19 21 14 14 16 13 12 12 14 15 17 18 19 18 17 16 13 14 15 15
11 15 12 5 3 1 5 8 10 13 7 9 8 4 7 6 5 4 3 4 6 7 8 8 9 9 8 10 12 16 18 19 16 17 16 12 14 12 15 16 18 19 19 18 18 14 15 15 15
8 6 5 4 5 5 7 7 12 5 11 11 8 8 8 6 6 6 5 5 6 7 6 7 8 9 9 9 9 10 14 17 16 15 16 15 13 14 14 17 18 20 18 18 18 15 15 16 14
12 7 6 7 5 5 3 7 7 13 2 5 8 8 7 1 5 5 4 5 7 8 7 8 7 8 8 8 8 8 10 13 14 14 15 14 14 14 15 16 16 17 18 18 17 18 17 17 16
16 19 12 5 5 4 2 11 6 6 8 8 7 5 2 3 6 7 8 8 7 7 7 8 7 7 7 8 8 9 8 7 11 14 16 14 14 12 13 14 15 16 18 17 18 18 16 17 18
Wind_Direction
308 313 303 334 348 140 78 66 78 86 74 40 44 25 20 39 15 115 153 98 123 128 129 138 130 127 123 125 129 115 120 106 109 107 107 111 91 89 104 99 92 95 94 91 90 89 88 87 86
301 299 304 270 242 117 82 88 78 62 71 28 344 300 22 85 79 117 101 135 133 124 148 136 130 130 130 128 117 116 115 111 114 111 109 116 93 100 94 106 99 96 97 95 94 92 92 91 90
301 295 283 323 296 29 95 86 104 87 63 74 128 20 5 69 82 147 116 150 127 131 149 127 136 134 133 133 130 126 123 114 117 114 115 116 112 91 99 96 101 95 94 98 96 97 97 96 95
318 298 247 261 76 58 46 78 115 132 138 323 12 88 82 21 82 111 140 137 129 139 113 133 140 140 138 140 141 145 135 135 130 117 119 120 130 91 110 109 112 110 106 103 104 102 101 100 96
303 260 274 266 79 79 58 45 148 157 129 129 4 99 93 68 83 120 150 139 134 132 124 136 141 144 145 145 146 146 141 133 120 117 120 125 133 111 100 99 111 112 107 114 112 108 107 102 95
302 223 282 302 102 102 67 7 245 139 65 115 208 135 91 116 109 123 160 147 134 136 134 137 144 142 146 150 152 145 150 140 130 124 124 133 138 144 101 105 104 113 120 115 118 116 113 110 99
274 299 282 303 252 153 124 283 244 186 153 98 55 341 112 147 136 148 156 151 136 121 132 141 156 153 152 154 154 145 152 144 137 129 126 140 140 156 97 118 133 104 122 126 126 127 124 118 106
316 297 281 293 295 318 112 162 28 306 44 138 8 258 147 138 139 140 157 128 144 141 143 149 157 156 162 160 160 148 145 145 141 131 122 130 157 163 113 111 148 129 106 139 135 133 133 122 113
309 269 253 257 239 216 127 172 139 17 306 200 140 30 105 130 140 147 159 153 161 151 195 158 165 166 164 166 173 157 155 147 148 134 129 144 155 172 177 181 151 147 129 129 146 147 136 129 131
229 234 249 271 306 344 154 192 159 176 214 224 161 100 117 149 167 168 177 179 180 168 192 188 167 161 166 169 156 181 166 164 165 148 155 185 195 174 178 160 161 147 140 141 150 155 168 177 172
206 242 272 275 331 345 336 169 216 258 265 251 205 170 160 171 188 189 196 193 189 170 182 197 173 166 161 174 166 180 171 178 176 165 170 210 162 139 135 137 139 141 163 170 157 185 214 219 214
251 273 270 286 3 9 305 310 280 246 243 285 322 339 166 177 191 210 207 201 183 180 185 192 184 175 166 172 178 189 168 190 178 173 176 202 178 150 163 153 176 176 175 202 184 191 223 220 281
246 256 290 246 311 325 307 286 284 280 279 293 303 284 273 195 199 201 215 204 191 196 188 187 178 195 173 179 180 205 176 180 178 177 176 183 177 162 168 178 175 186 172 206 188 199 201 216 227
157 271 254 275 247 289 267 267 274 257 248 264 246 243 246 242 232 216 201 207 199 196 197 186 189 189 182 181 193 190 184 166 183 179 180 181 181 182 182 180 183 183 177 197 182 200 191 206 203
279 281 275 266 268 244 248 259 234 259 255 255 262 267 236 233 224 245 216 203 195 197 194 198 196 195 188 190 193 181 180 180 182 181 177 179 187 194 184 182 179 187 191 186 191 205 196 194 204
225 248 262 228 230 210 177 254 270 245 229 236 241 242 242 241 216 220 225 210 193 188 193 193 197 203 197 193 192 186 188 181 178 178 183 182 185 197 189 182 183 188 186 180 185 190 198 207 205
201 238 220 260 233 217 184 266 276 275 283 277 266 246 257 270 248 247 221 213 204 194 187 193 194 201 204 200 192 192 194 183 183 190 182 189 192 196 187 182 188 185 185 179 188 204 176 192 217
207 221 258 274 251 204 233 246 244 277 284 264 270 280 269 261 258 243 221 213 211 194 181 188 197 198 201 206 204 199 194 192 187 194 199 188 195 197 195 186 188 186 177 189 186 194 201 185 193
256 231 240 240 235 294 265 267 272 277 271 272 264 262 246 252 259 256 237 203 202 201 185 187 192 197 191 204 208 204 202 189 195 194 205 202 193 194 198 199 194 190 186 192 193 194 191 213 203
249 261 272 271 287 146 282 276 270 260 258 258 262 268 267 260 254 259 252 218 196 196 194 197 195 194 195 201 207 212 210 207 201 199 204 213 201 196 197 200 202 200 190 187 195 190 198 195 186
226 229 261 296 304 323 317 289 254 249 249 248 253 253 256 255 258 262 258 256 231 201 200 200 206 204 193 201 203 205 205 205 208 210 208 206 212 202 200 199 201 202 200 198 195 193 193 202 201
237 214 244 258 296 275 315 287 289 297 281 254 244 242 240 240 240 242 245 242 231 226 207 200 205 205 206 199 199 202 204 204 213 211 210 206 208 210 204 202 201 204 200 203 202 196 198 175 201
243 226 258 248 273 283 251 271 277 263 298 277 252 225 232 239 232 232 236 239 236 225 210 200 204 206 208 202 205 207 214 218 215 207 205 205 206 209 207 204 202 206 204 208 204 199 199 202 197
190 230 191 286 39 251 209 227 247 227 247 87 13 327 302 343 244 48 4 3 341 319 258 226 210 212 203 202 209 212 212 220 216 207 207 204 204 206 208 207 204 205 207 205 204 202 203 202 206
195 144 152 213 209 236 199 192 245 302 297 277 300 298 23 18 17 35 39 13 345 324 310 269 229 225 212 207 209 215 220 217 224 219 208 203 205 206 213 208 206 207 210 210 202 203 207 204 203
189 179 180 203 190 267 199 226 247 212 250 250 252 289 22 52 64 63 43 348 304 304 306 296 277 243 223 216 216 218 222 225 221 223 214 218 212 211 211 209 212 211 210 210 207 204 210 207 209
187 211 220 334 112 173 232 285 299 281 233 248 264 259 112 90 75 77 309 255 269 290 293 296 292 274 249 234 227 218 219 223 228 227 229 218 214 214 211 207 210 211 211 209 209 209 209 209 208
217 136 164 201 202 230 257 268 246 305 232 222 252 166 92 40 26 336 311 314 296 273 269 285 278 276 272 253 241 230 215 220 225 232 233 231 223 217 212 211 209 210 208 209 210 212 212 209 213
205 177 241 165 203 193 272 250 213 225 324 131 82 76 81 9 283 283 308 287 301 302 278 274 268 267 271 273 261 251 228 212 218 228 234 235 234 228 227 221 211 210 207 207 210 214 216 218 215
218 221 202 190 178 234 7 261 294 348 68 93 90 122 175 297 320 343 329 329 317 306 310 296 286 269 264 256 259 259 244 211 211 219 226 233 233 223 231 232 223 207 208 206 208 213 216 220 220